Location: Dennehotso
(36.8461°N, 109.8435°W)
Time: 02:02:14
(UTC+00:00)

N. Korean satellite - Pass Details

Date: 06 March 2021
Orbit: 453 x 499 km, 97.2° (Epoch: 11 April)

Event Time Altitude Azimuth Distance (km) Brightness Sun altitude
Rises 11:57:32 0° 28° (NNE) 2,538 10.7 -21.8°
Reaches altitude 10° 11:59:58 10° 44° (NE) 1,664 10.0 -21.3°
Maximum altitude 12:02:45 21° 96° (E) 1,132 9.2 -20.8°
Drops below altitude 10° 12:05:33 10° 147° (SSE) 1,673 9.6 -20.2°
Sets 12:07:59 0° 163° (SSE) 2,557 10.3 -19.8°
